030902 127  0.3+  0.3+    030918 H41  0.1-  0.2+                            

NAKANO

         **** Don't distribute anyone except personal use only ****

                (C) Copyright 2003 OAA/ComputingSection

write mail from CFAD0::NAKANO on 2003-10-19 02:58:01(JST).

 



◎C/2002 CE10の軌道と予報位置です



 すばる望遠鏡の8月の観測で,この小惑星にコマと 21"ほどの尾が見つかり,

天体は,彗星であることが判明しました.小惑星は,昨年に久万の中村彰正氏,

佐治の織部隆明氏(他),そして,今年に8月なって,美星と秦野の浅見敦夫

氏によって観測されています.8月の美星と秦野の核光度は,16.0等と15.3等

でした.

 なお,この小惑星は,現在までに発見されている逆行軌道を動く6個の小惑

星(2個は番号登録済)の1つでした.今後の他のこの種の小惑星の調査で期

待されます.



    C/2002 CE10 (LINEAR)                                                  

Epoch 2003 June 10.0 TT = JDT 2452800.5  

T 2003 June 22.09787 TT                                 Nakano

q   2.0467655            (2000.0)            P               Q

n   0.03204933     Peri.  126.18782     +0.85540660     +0.41854954

a   9.8157486      Node   147.44408     +0.04056975     -0.64140821

e   0.7914815      Incl.  145.45862     +0.51636580     -0.64297107

P  30.75 (+/- 0.02 day)

From 233 observations 2002 Jan. 15-2003 Sept. 3, mean residual 0".49.

 

Date/        TT  R.A.(2000) Decl.     Delta   r     Daily motion  Mag.  Moon Age

              h    h  m       。  ,                      ,  / PA 。  m1      。

2003 Sept. 5 14  22 40.76  +15 07.0   1.231  2.198    86.2 / 231  14.9   72  .72

           6 14  22 36.13  +14 12.9   1.233  2.202    86.1 / 231  14.9   58  .82

           7 14  22 31.56  +13 18.4   1.235  2.206    85.8 / 230  14.9   46  .89

           8 14  22 27.05  +12 23.6   1.238  2.210    85.3 / 230  14.9   34  .95

           9 14  22 22.61  +11 28.5   1.242  2.214    84.7 / 230  14.9   26  .98

          10 14  22 18.23  +10 33.5   1.247  2.218    84.0 / 229  14.9   25 1.00

          11 14  22 13.94  +09 38.5   1.253  2.222    83.1 / 229  15.0   30  .99

          12 14  22 09.72  +08 43.7   1.260  2.226    82.0 / 228  15.0   40  .96

          13 14  22 05.59  +07 49.3   1.268  2.230    80.9 / 228  15.0   51  .92

          14 14  22 01.55  +06 55.3   1.277  2.234    79.6 / 228  15.0   63  .86

          15 14  21 57.59  +06 01.8   1.287  2.238    78.2 / 228  15.0   75  .79

          16 14  21 53.73  +05 08.9   1.297  2.242    76.7 / 227  15.1   87  .70

          17 14  21 49.97  +04 16.8   1.309  2.247    75.1 / 227  15.1   99  .61

          18 14  21 46.30  +03 25.4   1.321  2.251    73.5 / 227  15.1  111  .52

          19 14  21 42.74  +02 35.0   1.334  2.255    71.8 / 226  15.2  123  .42

          20 14  21 39.27  +01 45.4   1.348  2.260    70.1 / 226  15.2  136  .33

          21 14  21 35.90  +00 56.9   1.363  2.264    68.3 / 226  15.2  147  .24

          22 14  21 32.63  +00 09.4   1.378  2.268    66.4 / 226  15.3  157  .15

          23 14  21 29.46  -00 37.1   1.395  2.273    64.6 / 225  15.3  161  .09

          24 14  21 26.39  -01 22.4   1.411  2.277    62.7 / 225  15.3  156  .03

          25 14  21 23.42  -02 06.7   1.429  2.282    60.9 / 225  15.4  144  .01

          26 14  21 20.55  -02 49.7   1.447  2.287    59.0 / 225  15.4  130  .00

          27 14  21 17.78  -03 31.7   1.466  2.291    57.2 / 224  15.4  116  .03

          28 14  21 15.11  -04 12.5   1.485  2.296    55.3 / 224  15.5  101  .08

          29 14  21 12.53  -04 52.1   1.505  2.300    53.5 / 224  15.5   86  .16

          30 14  21 10.04  -05 30.6   1.525  2.305    51.7 / 224  15.5   71  .26

     Oct.  1 14  21 07.64  -06 08.0   1.546  2.310    49.9 / 223  15.6   57  .36

           2 14  21 05.34  -06 44.3   1.568  2.315    48.2 / 223  15.6   43  .48

           3 14  21 03.12  -07 19.4   1.590  2.320    46.5 / 223  15.7   29  .59

           4 14  21 00.99  -07 53.5   1.612  2.324    44.9 / 223  15.7   18  .69

           5 14  20 58.94  -08 26.5   1.634  2.329    43.2 / 222  15.7   14  .78

NAKANO

         **** Don't distribute anyone except personal use only ****

                (C) Copyright 2003 OAA/ComputingSection

write mail from CFAD0::NAKANO on 2003-09-05 04:58:30(JST).

 



戻ります。